Regional Weather Roundup
Issued by NWS Green Bay, WI

Home | Current Version | Previous Version | Text Only | Print | Product List | Glossary On
Versions: 1 2 3 4 5 6 7 8 9 10 11 12 13 14 15 16 17 18 19 20 21 22 23 24 25 26 27 28 29 30 31 32 33 34 35 36 37 38 39 40 41 42 43 44 45 46 47 48 49 50
000
ASUS43 KGRB 310159
RWRGRB

NORTH-CENTRAL AND NORTHEAST WISCONSIN REGIONAL WEATHER ROUNDUP
NATIONAL WEATHER SERVICE GREEN BAY WI
900 PM CDT THU OCT 30 2014

WIZ005-009-010>012-018-019-310300-
NORTH CENTRAL WISCONSIN

CITY           SKY/WX    TMP DP  RH WIND       PRES   REMARKS
IRONWOOD       CLOUDY    34  30  86 N13G20    30.06S
MANITOWISH WTR NOT AVBL
ARBOR VITAE    NOT AVBL
EAGLE RIVER    NOT AVBL
LAND O LAKES   NOT AVBL
RHINELANDER    MIX PCPN  36  31  82 W13       30.03F
PHILLIPS       NOT AVBL
ANTIGO         NOT AVBL
TOMAHAWK       NOT AVBL
MERRILL        NOT AVBL
$$

WIZ013-073-310300-
NORTHEAST WISCONSIN

CITY           SKY/WX    TMP DP  RH WIND       PRES   REMARKS
IRON MOUNTAIN  CLOUDY    39  32  76 W8        29.97F
MARINETTE      CLOUDY    43  30  61 NW8       29.99F
$$

WIZ017-030-035>037-045-310300-
CENTRAL WISCONSIN

CITY           SKY/WX    TMP DP  RH WIND       PRES   REMARKS
MEDFORD        NOT AVBL
WAUSAU         CLOUDY    41  30  65 NW8       30.04S
MOSINEE        CLOUDY    39  34  81 NW17G23   30.06S
MARSHFIELD     CLOUDY    41  32  70 NW17      30.07S
WISC RAPIDS    CLOUDY    43  32  65 NW13G21   30.08S
STEVENS POINT  NOT AVBL
WAUPACA        NOT AVBL
SHAWANO        NOT AVBL
CLINTONVILLE   NOT AVBL
$$

WIZ038-039-048-051-310300-
FOX VALLEY

CITY           SKY/WX    TMP DP  RH WIND       PRES   REMARKS
NWS GREEN BAY  CLOUDY    45  35  68 NW13      30.01F
APPLETON       MOCLDY    45  32  61 NW14      30.02S
OSHKOSH        CLOUDY    46  35  65 NW13      30.02S
FOND DU LAC    CLOUDY    46  36  68 W7        30.02S
$$

WIZ022-050-052-310300-
EAST CENTRAL WISCONSIN

CITY           SKY/WX    TMP DP  RH WIND       PRES   REMARKS
STURGEON BAY   CLOUDY    45  30  57 NW15      29.99F
MANITOWOC      NOT AVBL
SHEBOYGAN      CLOUDY    44  36  73 SW5       30.00F
$$

LMZ563-521-522-541>543-310300-
LAKESHORE

STATION/POSITION TIME  TEMP    WIND        PRES    VSBY  WAVE
                       AIR SEA DIR/SP/G                  HT/PER
                 (UTC) (F)     (DEG/KT/KT) (MB)    (MI)  (FT/S)
SHEBOYGAN LKSHOR 0100   48 50  230/  7/  8 1017.0F
KEWAUNEE LKSHORE 0100                      1014.8F
NORTHPORT PIER   0100   45     300/ 10/ 18 1015.2F
N MID LAKE BUOY  0100   46 51  300/ 14/ 16 1015.5F         2/ 4
CHAMBERS ISLAND  0100   45     300/ 10/ 13 1015.9F
MENOMINEE LKSHOR 0100                      1016.4F
$$



USA.gov is the U.S. government's official web portal to all federal, state and local government web resources and services.